Weather History for Blackwell, OK

Change the Weather History Date:

Friday, February 22, 2013

  Actual Average (KPNC) Record (KPNC)
Temperature  
Mean Temperature 20 °F -  
Max Temperature 26 °F 46 °F 70 °F (2012)
Min Temperature 14 °F 26 °F 13 °F (1963)
Degree Days  
Heating Degree Days 45    
Moisture  
Dew Point 15 °F    
Average Humidity 79    
Maximum Humidity 93    
Minimum Humidity 64    
Precipitation  
Precipitation 0.21 in - - ()
Sea Level Pressure  
Sea Level Pressure 30.08 in    
Wind  
Wind Speed 11 mph (WNW)    
Max Wind Speed 16 mph    
Max Gust Speed -    
Visibility 10 miles    
Events      
Averages and records for this station are not official NWS values.
T = Trace of Precipitation, MM = Missing Value Source: NWS Daily Summary

Daily Weather History Graph

Daily Weather History Graph

Search for Another Location

Airport:

Trip Planner

Search our weather history database for the weather conditions in past years. The results will help you decide how hot, cold, wet, or windy it might be!

Date:

Astronomy

Feb. 22, 2013 Rise Set
Actual Time 7:08 AM CST 6:17 PM CST
Civil Twilight 6:42 AM CST 6:43 PM CST
Nautical Twilight 6:12 AM CST 7:13 PM CST
Astronomical Twilight 5:42 AM CST 7:43 PM CST
Moon 3:32 PM CST (2/22) 4:51 AM CST (2/22)
Length of Visible Light 12h 00m
Length of Day
11h 08m
Waxing Gibbous, 90% of the Moon is Illuminated
Feb 22
Waxing Gibbous
Feb 25
Full
Mar 4
Last Quarter
Mar 11
New
Mar 19
First Quarter

Hourly Weather History & Observations

Time (CST) Temp. Windchill Dew Point Humidity Pressure Visibility Wind Dir Wind Speed Gust Speed Precip Events Conditions
12:15 AM 17.6 °F 2.7 °F 14.0 °F 86% 29.95 in 10.0 mi West 16.1 mph - N/A   Clear
12:35 AM 17.6 °F 2.7 °F 14.0 °F 86% 29.96 in 10.0 mi West 16.1 mph - N/A   Clear
12:55 AM 17.6 °F 3.2 °F 14.0 °F 86% 29.98 in 10.0 mi West 15.0 mph - N/A   Clear
1:15 AM 17.6 °F 3.2 °F 14.0 °F 86% 29.99 in 10.0 mi West 15.0 mph - N/A   Clear
1:35 AM 17.6 °F 3.2 °F 14.0 °F 86% 29.99 in 10.0 mi West 15.0 mph - N/A   Clear
1:55 AM 17.6 °F 2.7 °F 14.0 °F 86% 29.99 in 10.0 mi West 16.1 mph - N/A   Clear
2:15 AM 17.6 °F 2.7 °F 14.0 °F 86% 29.99 in 10.0 mi WNW 16.1 mph - N/A   Clear
2:35 AM 17.6 °F 2.7 °F 12.2 °F 79% 29.99 in 10.0 mi West 16.1 mph - N/A   Clear
2:55 AM 15.8 °F 0.9 °F 12.2 °F 86% 29.98 in 10.0 mi West 15.0 mph - N/A   Clear
3:15 AM 15.8 °F 2.1 °F 12.2 °F 86% 29.99 in 10.0 mi West 12.7 mph - N/A   Clear
3:35 AM 15.8 °F 1.4 °F 12.2 °F 86% 29.99 in 10.0 mi West 13.8 mph - N/A   Clear
3:55 AM 15.8 °F 2.7 °F 10.4 °F 79% 29.99 in 10.0 mi West 11.5 mph - N/A   Clear
4:15 AM 15.8 °F 2.7 °F 10.4 °F 79% 29.99 in 10.0 mi West 11.5 mph - N/A   Clear
4:35 AM 15.8 °F 3.4 °F 10.4 °F 79% 30.00 in 10.0 mi West 10.4 mph - N/A   Clear
4:55 AM 15.8 °F 1.4 °F 10.4 °F 79% 30.00 in 10.0 mi WNW 13.8 mph - N/A   Clear
5:15 AM 15.8 °F 1.4 °F 10.4 °F 79% 30.01 in 10.0 mi WNW 13.8 mph - N/A   Clear
5:35 AM 15.8 °F 2.7 °F 10.4 °F 79% 30.01 in 10.0 mi WNW 11.5 mph - N/A   Clear
5:55 AM 14.0 °F -0.2 °F 10.4 °F 86% 30.02 in 10.0 mi WNW 12.7 mph - N/A   Clear
6:15 AM 14.0 °F 0.5 °F 10.4 °F 86% 30.03 in 10.0 mi WNW 11.5 mph - N/A   Clear
6:35 AM 14.0 °F 1.2 °F 10.4 °F 86% 30.04 in 10.0 mi West 10.4 mph - N/A   Clear
7:15 AM 14.0 °F 1.2 °F 8.6 °F 79% 30.05 in 10.0 mi West 10.4 mph - N/A   Clear
7:35 AM 14.0 °F 0.5 °F 8.6 °F 79% 30.06 in 10.0 mi West 11.5 mph - N/A   Clear
7:55 AM 14.0 °F 2.0 °F 10.4 °F 86% 30.08 in 10.0 mi WSW 9.2 mph - N/A   Clear
8:15 AM 15.8 °F 5.1 °F 10.4 °F 79% 30.09 in 10.0 mi West 8.1 mph - N/A   Clear
8:35 AM 15.8 °F 5.1 °F 10.4 °F 79% 30.11 in 10.0 mi West 8.1 mph - N/A   Clear
8:55 AM 15.8 °F 4.2 °F 10.4 °F 79% 30.12 in 10.0 mi West 9.2 mph - N/A   Clear
9:15 AM 17.6 °F 5.7 °F 10.4 °F 73% 30.12 in 10.0 mi West 10.4 mph - N/A   Clear
9:35 AM 17.6 °F 5.7 °F 12.2 °F 79% 30.12 in 10.0 mi WNW 10.4 mph - N/A   Clear
10:15 AM 19.4 °F 7.2 °F 12.2 °F 74% 30.14 in 10.0 mi WNW 11.5 mph - N/A   Clear
10:35 AM 19.4 °F 7.9 °F 14.0 °F 80% 30.14 in 10.0 mi WNW 10.4 mph - N/A   Clear
10:55 AM 19.4 °F 7.2 °F 14.0 °F 80% 30.14 in 10.0 mi WNW 11.5 mph - N/A   Clear
11:15 AM 21.2 °F 11.7 °F 14.0 °F 74% 30.15 in 10.0 mi WNW 8.1 mph - N/A   Clear
11:35 AM 21.2 °F 12.6 °F 14.0 °F 74% 30.15 in 10.0 mi WNW 6.9 mph - N/A   Clear
11:55 AM 23.0 °F 17.0 °F 14.0 °F 68% 30.15 in 10.0 mi WNW 4.6 mph - N/A   Clear
12:15 PM 23.0 °F 14.7 °F 15.8 °F 74% 30.15 in 10.0 mi WNW 6.9 mph - N/A   Clear
12:35 PM 23.0 °F 15.8 °F 15.8 °F 74% 30.15 in 10.0 mi WNW 5.8 mph - 0.04 in   Clear
12:55 PM 24.8 °F 15.3 °F 15.8 °F 69% 30.14 in 10.0 mi NW 9.2 mph - 0.07 in   Clear
1:15 PM 24.8 °F 15.3 °F 15.8 °F 69% 30.12 in 10.0 mi NW 9.2 mph - 0.01 in   Clear
1:35 PM 24.8 °F 16.1 °F 17.6 °F 74% 30.12 in 10.0 mi WNW 8.1 mph - 0.03 in   Clear
1:55 PM 24.8 °F 16.1 °F 15.8 °F 69% 30.12 in 10.0 mi WNW 8.1 mph - 0.05 in   Clear
2:15 PM 24.8 °F 16.9 °F 17.6 °F 74% 30.11 in 10.0 mi WNW 6.9 mph - 0.01 in   Clear
2:35 PM 24.8 °F 16.1 °F 17.6 °F 74% 30.10 in 10.0 mi West 8.1 mph - 0.03 in   Clear
2:55 PM 26.6 °F 19.1 °F 17.6 °F 69% 30.10 in 10.0 mi NW 6.9 mph - 0.05 in   Clear
3:15 PM 24.8 °F 16.1 °F 15.8 °F 69% 30.10 in 10.0 mi NW 8.1 mph - 0.01 in   Clear
3:35 PM 26.6 °F 19.1 °F 15.8 °F 64% 30.10 in 10.0 mi NW 6.9 mph - 0.02 in   Clear
3:55 PM 26.6 °F 18.2 °F 15.8 °F 64% 30.10 in 10.0 mi NW 8.1 mph - 0.03 in   Clear
4:15 PM 26.6 °F 20.0 °F 15.8 °F 64% 30.10 in 10.0 mi NNW 5.8 mph - 0.01 in   Clear
4:35 PM 26.6 °F 17.5 °F 15.8 °F 64% 30.09 in 10.0 mi NW 9.2 mph - 0.01 in   Clear
4:55 PM 26.6 °F 18.2 °F 17.6 °F 69% 30.09 in 10.0 mi NW 8.1 mph - 0.01 in   Clear
5:15 PM 26.6 °F 19.1 °F 15.8 °F 64% 30.09 in 10.0 mi NW 6.9 mph - N/A   Clear
5:35 PM 26.6 °F 18.2 °F 17.6 °F 69% 30.09 in 10.0 mi WNW 8.1 mph - N/A   Clear
5:55 PM 24.8 °F 16.9 °F 17.6 °F 74% 30.09 in 10.0 mi NNW 6.9 mph - N/A   Clear
6:15 PM 24.8 °F 16.9 °F 17.6 °F 74% 30.10 in 10.0 mi NW 6.9 mph - N/A   Clear
6:35 PM 24.8 °F 19.1 °F 17.6 °F 74% 30.09 in 10.0 mi NNW 4.6 mph - N/A   Clear
6:55 PM 23.0 °F 15.8 °F 17.6 °F 80% 30.10 in 10.0 mi NW 5.8 mph - N/A   Clear
7:15 PM 23.0 °F 15.8 °F 17.6 °F 80% 30.11 in 10.0 mi West 5.8 mph - N/A   Clear
7:35 PM 23.0 °F 17.0 °F 17.6 °F 80% 30.10 in 10.0 mi WNW 4.6 mph - N/A   Clear
7:55 PM 23.0 °F 15.8 °F 17.6 °F 80% 30.11 in 10.0 mi WNW 5.8 mph - N/A   Clear
8:15 PM 23.0 °F 15.8 °F 17.6 °F 80% 30.11 in 10.0 mi West 5.8 mph - N/A   Clear
8:35 PM 23.0 °F 14.7 °F 17.6 °F 80% 30.11 in 10.0 mi West 6.9 mph - N/A   Clear
8:55 PM 21.2 °F 13.6 °F 17.6 °F 86% 30.12 in 10.0 mi West 5.8 mph - N/A   Clear
9:15 PM 21.2 °F 12.6 °F 17.6 °F 86% 30.12 in 10.0 mi West 6.9 mph - N/A   Clear
9:35 PM 21.2 °F 12.6 °F 17.6 °F 86% 30.13 in 10.0 mi West 6.9 mph - N/A   Clear
9:55 PM 19.4 °F 10.4 °F 17.6 °F 93% 30.14 in 10.0 mi WSW 6.9 mph - N/A   Clear
10:15 PM 19.4 °F 12.8 °F 17.6 °F 93% 30.13 in 10.0 mi WSW 4.6 mph - N/A   Clear
10:35 PM 19.4 °F 11.5 °F 17.6 °F 93% 30.13 in 10.0 mi WSW 5.8 mph - N/A   Clear
10:55 PM 19.4 °F 11.5 °F 17.6 °F 93% 30.13 in 10.0 mi WSW 5.8 mph - N/A   Clear
11:15 PM 19.4 °F 14.3 °F 17.6 °F 93% 30.13 in 10.0 mi WSW 3.5 mph - N/A   Clear
11:35 PM 19.4 °F 12.8 °F 17.6 °F 93% 30.13 in 10.0 mi WSW 4.6 mph - N/A   Clear
11:55 PM 19.4 °F 11.5 °F 17.6 °F 93% 30.13 in 10.0 mi West 5.8 mph - N/A   Clear